Regional Weather Roundup
Issued by NWS Cleveland, OH

Home | Current Version | Previous Version | Graphics & Text | Print | Product List | Glossary On
Versions: 1 2 3 4 5 6 7 8 9 10 11 12 13 14 15 16 17 18 19 20 21 22 23 24 25 26 27 28 29 30 31 32 33 34 35 36 37 38 39 40 41 42 43 44 45 46 47 48 49 50
000
ASUS41 KCLE 281910
RWRCLE
OHIO REGIONAL WEATHER ROUNDUP
NATIONAL WEATHER SERVICE CLEVELAND, OH
300 PM EDT MON JUL 28 2014

NOTE: "FAIR" INDICATES FEW OR NO CLOUDS BELOW 12,000 FEET WITH NO
SIGNIFICANT WEATHER AND/OR OBSTRUCTIONS TO VISIBILITY.

OHZ001>008-015>018-024>027-034-035-043-044-282000-
   NORTHWEST OHIO

CITY           SKY/WX    TMP DP  RH WIND       PRES   REMARKS
DEFIANCE       MOSUNNY   73  54  51 NW12G23   29.95R
FINDLAY        PTSUNNY   74  53  48 NW10      29.92R
TOLEDO EXPRESS CLOUDY    71  50  47 NW13      29.92S
TOLEDO EXEC    CLOUDY    72  51  47 N14G22    29.93S
LIMA           CLOUDY    70  55  59 NW14G21   29.94R
$$

OHZ009>014-019>023-028>033-038-089-282000-
   NORTHEAST OHIO

CITY           SKY/WX    TMP DP  RH WIND       PRES   REMARKS
CLE-HOPKINS    PTSUNNY   67  55  65 N21G28    29.91R
CLE-LAKEFRONT  PTSUNNY   68  57  68 NW24G32   29.87R
CUY CO. ARPT   NOT AVBL
LORAIN-ELYRIA  CLOUDY    69  56  62 N18G26    29.91R
ASHTABULA      CLOUDY    65  57  75 NW13G20   29.84R
AKRON-CANTON   CLOUDY    65  54  67 N17G30    29.87R
WOOSTER        MOSUNNY   70  56  61 N20G28    29.90R
MANSFIELD      CLOUDY    70  56  61 NW14G20   29.92R
YOUNGSTOWN     CLOUDY    62  59  90 NW13G21   29.83R
$$

OHZ042-051>053-060>062-070>072-077>081-282000-
  SOUTHWEST OHIO

CITY           SKY/WX    TMP DP  RH WIND       PRES   REMARKS
CINC-COVINGTON CLOUDY    71  60  68 NW10      29.98R
CINC-LUNKEN    CLOUDY    72  60  66 W10       29.97R
HAMILTON       MOSUNNY   76  62  62 W8G17     29.96F
DAYTON         PTSUNNY   76  55  48 N18       29.96R
WRIGHT-PAT AFB MOSUNNY   74  58  57 NW17      29.94R
DAYTON GENERAL PTSUNNY   73  59  61 NW12      29.94S
WILMINGTON     CLOUDY    71  57  61 NW14      29.94S
$$

OHZ036-037-039>041-045>050-054>059-063>069-073>076-082>088-282000-
  CENTRAL AND SOUTHEAST OHIO

CITY           SKY/WX    TMP DP  RH WIND       PRES   REMARKS
COLUMBUS       CLOUDY    73  57  57 NW12      29.90R
OSU AIRPORT    CLOUDY    72  57  59 N10G18    29.91S
BOLTON FIELD   PTSUNNY   72  57  60 NW13G20   29.92S
RICKENBACK AFB MOSUNNY   74  53  47 NW9       29.91S
NEWARK         CLOUDY    70  57  63 N10G20    29.90R
MARION         PTSUNNY   71  54  54 NW10      29.92R
LANCASTER      PTSUNNY   70  58  65 NW13      29.91R
ZANESVILLE     NOT AVBL
NEW PHILLY     CLOUDY    67  57  70 NW10G24   29.88R
$$



USA.gov is the U.S. government's official web portal to all federal, state and local government web resources and services.